Mineral, WA (98355)

3:40 PM PST on December 08, 2016 (GMT -0800)
Mountain Foothills | | Change Station
Active Advisory: Winter Weather Advisory

Elev 1455 ft 46.71 °N, 122.18 °W | Updated 6 seconds ago

Snow
Snow
27.7 °F
Feels Like 28 °F
N
0.2
Wind Variable Wind from North
Gusts 2.5 mph

Today
High -- | Low -- °F
--% Chance of Precip.
Yesterday
High -- | Low -- °F
Precip. -- in
Pressure 29.91 in
Visibility 10.0 miles
Clouds Scattered Clouds 4400 ft
Overcast 5000 ft
Windchill 28 °F
Dew Point 16 °F
Humidity 62%
Rainfall 0.00 in
Snow Depth Not available.
7:41 AM 4:20 PM
Waxing Gibbous, 68% visible
METAR KPLU 082335Z AUTO 00000KT 10SM SCT044 OVC050 02/M06 A2991 RMK AO2
Pressure 29.91 in
Visibility 10.0 miles
Clouds Scattered Clouds 4400 ft
Overcast 5000 ft
Windchill 28 °F
Dew Point 16 °F
Humidity 62%
Rainfall 0.00 in
Snow Depth Not available.
7:41 AM 4:20 PM
Waxing Gibbous, 68% visible
METAR KPLU 082335Z AUTO 00000KT 10SM SCT044 OVC050 02/M06 A2991 RMK AO2

10-Day Weather Forecast

Almanac

Astronomy

Dec. 08, 2016 Rise Set
Actual Time
Civil Twilight
Nautical Twilight
Astronomical Twilight
Moon
Length of Visible Light
Length of Day
Tomorrow will be .
, % of the Moon is Illuminated

Today's Extremes

State Highs State Lows

Community

WunderPhotos

Upload Photos

1,956,277 photos uploaded!

WunderBlog® & News

Nearby

Air Quality

  Air Quality AQ Index Pollutant
Not available.

Snow Depth

Station Depth Elevation

Earthquake Activity

City Distance Mag. Time & Date
Minimum magnitude displayed is 2.5.

Coastal Water Temperatures

Place Temperature

Stations

Nearby Weather Stations

Station Location Temp. Windchill Dew Point Humidity Wind Precip. Elev Updated Type
                   

Watches & Warnings

Winter Weather Advisory
Issued: 12:25 PM PST Dec. 8, 2016 – National Weather Service

... Winter Weather Advisory remains in effect from 4 PM this
afternoon to 3 am PST Saturday...

* timing... a weather system will move through western Washington
tonight bringing snow to the mountains. Strong east winds in
combination with this expected snow may reduce visibility at
times.

* Accumulation... periods of snow will result in 4 to 8 inches of
snow tonight.

* Main impact... travel will affected as roadway surface conditions
may become slippery and winds combined with snow may reduce
visibility at times.

Precautionary/preparedness actions...

People planning on travel late Thursday afternoon and night should
expect winter driving conditions.